Year,Month,Day,Hour,Minute,Value (Times are PST for temperature in C)
2014,05,13,00,00,12.40
2014,05,13,00,01,12.40
2014,05,13,00,02,12.30
2014,05,13,00,03,12.30
2014,05,13,00,04,12.30
2014,05,13,00,05,12.30
2014,05,13,00,06,12.30
2014,05,13,00,07,12.30
2014,05,13,00,08,12.30
2014,05,13,00,09,12.30
2014,05,13,00,10,12.30
2014,05,13,00,11,12.20
2014,05,13,00,12,12.20
2014,05,13,00,13,12.20
2014,05,13,00,14,12.20
2014,05,13,00,15,12.20
2014,05,13,00,16,12.10
2014,05,13,00,17,12.10
2014,05,13,00,18,12.10
2014,05,13,00,19,12.10
2014,05,13,00,20,12.10
2014,05,13,00,21,12.10
2014,05,13,00,22,12.00
2014,05,13,00,23,12.00
2014,05,13,00,24,12.00
2014,05,13,00,25,12.00
2014,05,13,00,26,12.00
2014,05,13,00,27,11.90
2014,05,13,00,28,11.90
2014,05,13,00,29,11.90
2014,05,13,00,30,11.90
2014,05,13,00,31,11.90
2014,05,13,00,32,11.90
2014,05,13,00,33,11.80
2014,05,13,00,34,11.80
2014,05,13,00,35,11.80
2014,05,13,00,36,11.80
2014,05,13,00,37,11.80
2014,05,13,00,38,11.80
2014,05,13,00,39,11.80
2014,05,13,00,40,11.80
2014,05,13,00,41,11.80
2014,05,13,00,42,11.80
2014,05,13,00,43,11.80
2014,05,13,00,44,11.80
2014,05,13,00,45,11.80
2014,05,13,00,46,11.80
2014,05,13,00,47,11.80
2014,05,13,00,48,11.80
2014,05,13,00,49,11.80
2014,05,13,00,50,11.80
2014,05,13,00,51,11.80
2014,05,13,00,52,11.80
2014,05,13,00,53,11.80
2014,05,13,00,54,11.80
2014,05,13,00,55,11.80
2014,05,13,00,56,11.80
2014,05,13,00,57,11.80
2014,05,13,00,58,11.80
2014,05,13,00,59,11.80
2014,05,13,01,00,11.80
2014,05,13,01,01,11.80
2014,05,13,01,02,11.80
2014,05,13,01,03,11.80
2014,05,13,01,04,11.80
2014,05,13,01,05,11.80
2014,05,13,01,06,11.80
2014,05,13,01,07,11.80
2014,05,13,01,08,11.80
2014,05,13,01,09,11.80
2014,05,13,01,10,11.80
2014,05,13,01,11,11.80
2014,05,13,01,12,11.80
2014,05,13,01,13,11.80
2014,05,13,01,14,11.80
2014,05,13,01,15,11.90
2014,05,13,01,16,11.90
2014,05,13,01,17,11.90
2014,05,13,01,18,11.90
2014,05,13,01,19,12.00
2014,05,13,01,20,12.00
2014,05,13,01,21,12.00
2014,05,13,01,22,12.00
2014,05,13,01,23,12.00
2014,05,13,01,24,12.00
2014,05,13,01,25,12.00
2014,05,13,01,26,12.00
2014,05,13,01,27,12.00
2014,05,13,01,28,12.00
2014,05,13,01,29,12.00
2014,05,13,01,30,12.00
2014,05,13,01,31,11.90
2014,05,13,01,32,11.90
2014,05,13,01,33,11.90
2014,05,13,01,34,12.00
2014,05,13,01,35,12.00
2014,05,13,01,36,12.00
2014,05,13,01,37,12.00
2014,05,13,01,38,12.00
2014,05,13,01,39,12.00
2014,05,13,01,40,12.00
2014,05,13,01,41,12.00
2014,05,13,01,42,12.10
2014,05,13,01,43,12.10
2014,05,13,01,44,12.10
2014,05,13,01,45,12.10
2014,05,13,01,46,12.10
2014,05,13,01,47,12.10
2014,05,13,01,48,12.20
2014,05,13,01,49,12.20
2014,05,13,01,50,12.20
2014,05,13,01,51,12.20
2014,05,13,01,52,12.20
2014,05,13,01,53,12.30
2014,05,13,01,54,12.30
2014,05,13,01,55,12.30
2014,05,13,01,56,12.30
2014,05,13,01,57,12.30
2014,05,13,01,58,12.30
2014,05,13,01,59,12.30
2014,05,13,02,00,12.30
2014,05,13,02,01,12.30
2014,05,13,02,02,12.40
2014,05,13,02,03,12.40
2014,05,13,02,04,12.40
2014,05,13,02,05,12.40
2014,05,13,02,06,12.40
2014,05,13,02,07,12.40
2014,05,13,02,08,12.50
2014,05,13,02,09,12.50
2014,05,13,02,10,12.50
2014,05,13,02,11,12.50
2014,05,13,02,12,12.50
2014,05,13,02,13,12.50
2014,05,13,02,14,12.60
2014,05,13,02,15,12.60
2014,05,13,02,16,12.60
2014,05,13,02,17,12.60
2014,05,13,02,18,12.60
2014,05,13,02,19,12.70
2014,05,13,02,20,12.70
2014,05,13,02,21,12.70
2014,05,13,02,22,12.70
2014,05,13,02,23,12.70
2014,05,13,02,24,12.70
2014,05,13,02,25,12.70
2014,05,13,02,26,12.70
2014,05,13,02,27,12.70
2014,05,13,02,28,12.70
2014,05,13,02,29,12.70
2014,05,13,02,30,12.70
2014,05,13,02,31,12.70
2014,05,13,02,32,12.70
2014,05,13,02,33,12.70
2014,05,13,02,34,12.70
2014,05,13,02,35,12.70
2014,05,13,02,36,12.60
2014,05,13,02,37,12.60
2014,05,13,02,38,12.60
2014,05,13,02,39,12.60
2014,05,13,02,40,12.60
2014,05,13,02,41,12.70
2014,05,13,02,42,12.70
2014,05,13,02,43,12.70
2014,05,13,02,44,12.70
2014,05,13,02,45,12.70
2014,05,13,02,46,12.70
2014,05,13,02,47,12.70
2014,05,13,02,48,12.70
2014,05,13,02,49,12.70
2014,05,13,02,50,12.70
2014,05,13,02,51,12.70
2014,05,13,02,52,12.70
2014,05,13,02,53,12.70
2014,05,13,02,54,12.70
2014,05,13,02,55,12.70
2014,05,13,02,56,12.70
2014,05,13,02,57,12.70
2014,05,13,02,58,12.70
2014,05,13,02,59,12.70
2014,05,13,03,00,12.80
2014,05,13,03,01,12.80
2014,05,13,03,02,12.80
2014,05,13,03,03,12.80
2014,05,13,03,04,12.80
2014,05,13,03,05,12.80
2014,05,13,03,06,12.80
2014,05,13,03,07,12.80
2014,05,13,03,08,12.80
2014,05,13,03,09,12.80
2014,05,13,03,10,12.80
2014,05,13,03,11,12.80
2014,05,13,03,12,12.80
2014,05,13,03,13,12.80
2014,05,13,03,14,12.80
2014,05,13,03,15,12.80
2014,05,13,03,16,12.80
2014,05,13,03,17,12.80
2014,05,13,03,18,12.80
2014,05,13,03,19,12.80
2014,05,13,03,20,12.80
2014,05,13,03,21,12.80
2014,05,13,03,22,12.80
2014,05,13,03,23,12.80
2014,05,13,03,24,12.80
2014,05,13,03,25,12.80
2014,05,13,03,26,12.80
2014,05,13,03,27,12.80
2014,05,13,03,28,12.80
2014,05,13,03,29,12.80
2014,05,13,03,30,12.80
2014,05,13,03,31,12.90
2014,05,13,03,32,12.90
2014,05,13,03,33,13.00
2014,05,13,03,34,13.00
2014,05,13,03,35,13.00
2014,05,13,03,36,13.10
2014,05,13,03,37,13.10
2014,05,13,03,38,13.20
2014,05,13,03,39,13.20
2014,05,13,03,40,13.30
2014,05,13,03,41,13.30
2014,05,13,03,42,13.40
2014,05,13,03,43,13.50
2014,05,13,03,44,13.50
2014,05,13,03,45,13.60
2014,05,13,03,46,13.60
2014,05,13,03,47,13.60
2014,05,13,03,48,13.60
2014,05,13,03,49,13.60
2014,05,13,03,50,13.70
2014,05,13,03,51,13.70
2014,05,13,03,52,13.70
2014,05,13,03,53,13.70
2014,05,13,03,54,13.70
2014,05,13,03,55,13.70
2014,05,13,03,56,13.70
2014,05,13,03,57,13.70
2014,05,13,03,58,13.70
2014,05,13,03,59,13.70
2014,05,13,04,00,13.70
2014,05,13,04,01,13.70
2014,05,13,04,02,13.70
2014,05,13,04,03,13.70
2014,05,13,04,04,13.70
2014,05,13,04,05,13.70
2014,05,13,04,06,13.70
2014,05,13,04,07,13.70
2014,05,13,04,08,13.70
2014,05,13,04,09,13.70
2014,05,13,04,10,13.70
2014,05,13,04,11,13.70
2014,05,13,04,12,13.70
2014,05,13,04,13,13.70
2014,05,13,04,14,13.70
2014,05,13,04,15,13.60
2014,05,13,04,16,13.60
2014,05,13,04,17,13.60
2014,05,13,04,18,13.60
2014,05,13,04,19,13.60
2014,05,13,04,20,13.60
2014,05,13,04,21,13.60
2014,05,13,04,22,13.50
2014,05,13,04,23,13.50
2014,05,13,04,24,13.50
2014,05,13,04,25,13.50
2014,05,13,04,26,13.50
2014,05,13,04,27,13.50
2014,05,13,04,28,13.50
2014,05,13,04,29,13.50
2014,05,13,04,30,13.50
2014,05,13,04,31,13.50
2014,05,13,04,32,13.50
2014,05,13,04,33,13.50
2014,05,13,04,34,13.50
2014,05,13,04,35,13.50
2014,05,13,04,36,13.50
2014,05,13,04,37,13.50
2014,05,13,04,38,13.50
2014,05,13,04,39,13.50
2014,05,13,04,40,13.50
2014,05,13,04,41,13.50
2014,05,13,04,42,13.50
2014,05,13,04,43,13.50
2014,05,13,04,44,13.50
2014,05,13,04,45,13.50
2014,05,13,04,46,13.50
2014,05,13,04,47,13.50
2014,05,13,04,48,13.50
2014,05,13,04,49,13.50
2014,05,13,04,50,13.50
2014,05,13,04,51,13.50
2014,05,13,04,52,13.50
2014,05,13,04,53,13.50
2014,05,13,04,54,13.50
2014,05,13,04,55,13.40
2014,05,13,04,56,13.40
2014,05,13,04,57,13.40
2014,05,13,04,58,13.40
2014,05,13,04,59,13.40
2014,05,13,05,00,13.40
2014,05,13,05,01,13.40
2014,05,13,05,02,13.40
2014,05,13,05,03,13.30
2014,05,13,05,04,13.30
2014,05,13,05,05,13.30
2014,05,13,05,06,13.30
2014,05,13,05,07,13.30
2014,05,13,05,08,13.30
2014,05,13,05,09,13.30
2014,05,13,05,10,13.30
2014,05,13,05,11,13.30
2014,05,13,05,12,13.20
2014,05,13,05,13,13.20
2014,05,13,05,14,13.20
2014,05,13,05,15,13.20
2014,05,13,05,16,13.20
2014,05,13,05,17,13.20
2014,05,13,05,18,13.10
2014,05,13,05,19,13.10
2014,05,13,05,20,13.10
2014,05,13,05,21,13.10
2014,05,13,05,22,13.10
2014,05,13,05,23,13.10
2014,05,13,05,24,13.10
2014,05,13,05,25,13.10
2014,05,13,05,26,13.00
2014,05,13,05,27,13.00
2014,05,13,05,28,13.00
2014,05,13,05,29,13.00
2014,05,13,05,30,13.00
2014,05,13,05,31,13.00
2014,05,13,05,32,13.00
2014,05,13,05,33,13.00
2014,05,13,05,34,13.00
2014,05,13,05,35,13.00
2014,05,13,05,36,12.90
2014,05,13,05,37,12.90
2014,05,13,05,38,12.90
2014,05,13,05,39,12.90
2014,05,13,05,40,12.90
2014,05,13,05,41,12.90
2014,05,13,05,42,12.80
2014,05,13,05,43,12.80
2014,05,13,05,44,12.80
2014,05,13,05,45,12.80
2014,05,13,05,46,12.80
2014,05,13,05,47,12.80
2014,05,13,05,48,12.80
2014,05,13,05,49,12.80
2014,05,13,05,50,12.70
2014,05,13,05,51,12.70
2014,05,13,05,52,12.70
2014,05,13,05,53,12.60
2014,05,13,05,54,12.60
2014,05,13,05,55,12.50
2014,05,13,05,56,12.50
2014,05,13,05,57,12.50
2014,05,13,05,58,12.50
2014,05,13,05,59,12.40
2014,05,13,06,00,12.40
2014,05,13,06,01,12.40
2014,05,13,06,02,12.40
2014,05,13,06,03,12.30
2014,05,13,06,04,12.30
2014,05,13,06,05,12.30
2014,05,13,06,06,12.30
2014,05,13,06,07,12.30
2014,05,13,06,08,12.30
2014,05,13,06,09,12.30
2014,05,13,06,10,12.30
2014,05,13,06,11,12.30
2014,05,13,06,12,12.30
2014,05,13,06,13,12.30
2014,05,13,06,14,12.30
2014,05,13,06,15,12.30
2014,05,13,06,16,12.30
2014,05,13,06,17,12.30
2014,05,13,06,18,12.30
2014,05,13,06,19,12.30
2014,05,13,06,20,12.30
2014,05,13,06,21,12.40
2014,05,13,06,22,12.40
2014,05,13,06,23,12.40
2014,05,13,06,24,12.40
2014,05,13,06,25,12.50
2014,05,13,06,26,12.50
2014,05,13,06,27,12.40
2014,05,13,06,28,12.40
2014,05,13,06,29,12.40
2014,05,13,06,30,12.40
2014,05,13,06,31,12.40
2014,05,13,06,32,12.40
2014,05,13,06,33,12.40
2014,05,13,06,34,12.40
2014,05,13,06,35,12.30
2014,05,13,06,36,12.30
2014,05,13,06,37,12.30
2014,05,13,06,38,12.30
2014,05,13,06,39,12.30
2014,05,13,06,40,12.30
2014,05,13,06,41,12.30
2014,05,13,06,42,12.30
2014,05,13,06,43,12.30
2014,05,13,06,44,12.30
2014,05,13,06,45,12.40
2014,05,13,06,46,12.40
2014,05,13,06,47,12.40
2014,05,13,06,48,12.40
2014,05,13,06,49,12.40
2014,05,13,06,50,12.50
2014,05,13,06,51,12.50
2014,05,13,06,52,12.50
2014,05,13,06,53,12.50
2014,05,13,06,54,12.50
2014,05,13,06,55,12.50
2014,05,13,06,56,12.50
2014,05,13,06,57,12.50
2014,05,13,06,58,12.50
2014,05,13,06,59,12.50
2014,05,13,07,00,12.50
2014,05,13,07,01,12.50
2014,05,13,07,02,12.60
2014,05,13,07,03,12.60
2014,05,13,07,04,12.60
2014,05,13,07,05,12.60
2014,05,13,07,06,12.60
2014,05,13,07,07,12.60
2014,05,13,07,08,12.60
2014,05,13,07,09,12.60
2014,05,13,07,10,12.60
2014,05,13,07,11,12.60
2014,05,13,07,12,12.60
2014,05,13,07,13,12.60
2014,05,13,07,14,12.60
2014,05,13,07,15,12.70
2014,05,13,07,16,12.70
2014,05,13,07,17,12.70
2014,05,13,07,18,12.70
2014,05,13,07,19,12.70
2014,05,13,07,20,12.70
2014,05,13,07,21,12.70
2014,05,13,07,22,12.70
2014,05,13,07,23,12.70
2014,05,13,07,24,12.80
2014,05,13,07,25,12.80
2014,05,13,07,26,12.80
2014,05,13,07,27,12.80
2014,05,13,07,28,12.80
2014,05,13,07,29,12.80
2014,05,13,07,30,12.80
2014,05,13,07,31,12.90
2014,05,13,07,32,12.90
2014,05,13,07,33,13.00
2014,05,13,07,34,13.10
2014,05,13,07,35,13.10
2014,05,13,07,36,13.30
2014,05,13,07,37,13.40
2014,05,13,07,38,13.50
2014,05,13,07,39,13.60
2014,05,13,07,40,13.70
2014,05,13,07,41,13.80
2014,05,13,07,42,13.90
2014,05,13,07,43,14.00
2014,05,13,07,44,14.20
2014,05,13,07,45,14.30
2014,05,13,07,46,14.40
2014,05,13,07,47,14.50
2014,05,13,07,48,14.60
2014,05,13,07,49,14.70
2014,05,13,07,50,14.80
2014,05,13,07,51,14.80
2014,05,13,07,52,14.90
2014,05,13,07,53,15.00
2014,05,13,07,54,15.10
2014,05,13,07,55,15.10
2014,05,13,07,56,15.20
2014,05,13,07,57,15.20
2014,05,13,07,58,15.30
2014,05,13,07,59,15.30
2014,05,13,08,00,15.40
2014,05,13,08,01,15.50
2014,05,13,08,02,15.50
2014,05,13,08,03,15.60
2014,05,13,08,04,15.70
2014,05,13,08,05,15.70
2014,05,13,08,06,15.80
2014,05,13,08,07,15.80
2014,05,13,08,08,15.80
2014,05,13,08,09,15.90
2014,05,13,08,10,16.00
2014,05,13,08,11,16.10
2014,05,13,08,12,16.10
2014,05,13,08,13,16.20
2014,05,13,08,14,16.20
2014,05,13,08,15,16.30
2014,05,13,08,16,16.30
2014,05,13,08,17,16.30
2014,05,13,08,18,16.40
2014,05,13,08,19,16.40
2014,05,13,08,20,16.50
2014,05,13,08,21,16.70
2014,05,13,08,22,16.70
2014,05,13,08,23,16.70
2014,05,13,08,24,16.80
2014,05,13,08,25,16.80
2014,05,13,08,26,16.80
2014,05,13,08,27,16.80
2014,05,13,08,28,16.90
2014,05,13,08,29,16.90
2014,05,13,08,30,16.90
2014,05,13,08,31,17.00
2014,05,13,08,32,17.00
2014,05,13,08,33,17.10
2014,05,13,08,34,17.30
2014,05,13,08,35,17.40
2014,05,13,08,36,17.50
2014,05,13,08,37,17.60
2014,05,13,08,38,17.70
2014,05,13,08,39,17.70
2014,05,13,08,40,17.80
2014,05,13,08,41,17.80
2014,05,13,08,42,17.90
2014,05,13,08,43,17.90
2014,05,13,08,44,18.00
2014,05,13,08,45,18.10
2014,05,13,08,46,18.10
2014,05,13,08,47,18.10
2014,05,13,08,48,18.10
2014,05,13,08,49,18.10
2014,05,13,08,50,18.10
2014,05,13,08,51,18.10
2014,05,13,08,52,18.10
2014,05,13,08,53,18.20
2014,05,13,08,54,18.20
2014,05,13,08,55,18.20
2014,05,13,08,56,18.20
2014,05,13,08,57,18.20
2014,05,13,08,58,18.20
2014,05,13,08,59,18.30
2014,05,13,09,00,18.30
2014,05,13,09,01,18.40
2014,05,13,09,02,18.40
2014,05,13,09,03,18.50
2014,05,13,09,04,18.50
2014,05,13,09,05,18.40
2014,05,13,09,06,18.40
2014,05,13,09,07,18.40
2014,05,13,09,08,18.50
2014,05,13,09,09,18.50
2014,05,13,09,10,18.50
2014,05,13,09,11,18.50
2014,05,13,09,12,18.60
2014,05,13,09,13,18.60
2014,05,13,09,14,18.70
2014,05,13,09,15,18.60
2014,05,13,09,16,18.60
2014,05,13,09,17,18.60
2014,05,13,09,18,18.50
2014,05,13,09,19,18.50
2014,05,13,09,20,18.50
2014,05,13,09,21,18.50
2014,05,13,09,22,18.50
2014,05,13,09,23,18.50
2014,05,13,09,24,18.50
2014,05,13,09,25,18.50
2014,05,13,09,26,18.50
2014,05,13,09,27,18.50
2014,05,13,09,28,18.50
2014,05,13,09,29,18.50
2014,05,13,09,30,18.50
2014,05,13,09,31,18.50
2014,05,13,09,32,18.50
2014,05,13,09,33,18.50
2014,05,13,09,34,18.50
2014,05,13,09,35,18.50
2014,05,13,09,36,18.50
2014,05,13,09,37,18.50
2014,05,13,09,38,18.50
2014,05,13,09,39,18.50
2014,05,13,09,40,18.40
2014,05,13,09,41,18.40
2014,05,13,09,42,18.50
2014,05,13,09,43,18.50
2014,05,13,09,44,18.50
2014,05,13,09,45,18.50
2014,05,13,09,46,18.50
2014,05,13,09,47,18.50
2014,05,13,09,48,18.60
2014,05,13,09,49,18.60
2014,05,13,09,50,18.60
2014,05,13,09,51,18.70
2014,05,13,09,52,18.70
2014,05,13,09,53,18.70
2014,05,13,09,54,18.70
2014,05,13,09,55,18.70
2014,05,13,09,56,18.70
2014,05,13,09,57,18.70
2014,05,13,09,58,18.60
2014,05,13,09,59,18.60
2014,05,13,10,00,18.60
2014,05,13,10,01,18.60
2014,05,13,10,02,18.60
2014,05,13,10,03,18.60
2014,05,13,10,04,18.60
2014,05,13,10,05,18.50
2014,05,13,10,06,18.60
2014,05,13,10,07,18.60
2014,05,13,10,08,18.60
2014,05,13,10,09,18.60
2014,05,13,10,10,18.60
2014,05,13,10,11,18.60
2014,05,13,10,12,18.60
2014,05,13,10,13,18.60
2014,05,13,10,14,18.60
2014,05,13,10,15,18.50
2014,05,13,10,16,18.50
2014,05,13,10,17,18.60
2014,05,13,10,18,18.60
2014,05,13,10,19,18.60
2014,05,13,10,20,18.60
2014,05,13,10,21,18.60
2014,05,13,10,22,18.60
2014,05,13,10,23,18.60
2014,05,13,10,24,18.60
2014,05,13,10,25,18.60
2014,05,13,10,26,18.60
2014,05,13,10,27,18.70
2014,05,13,10,28,18.70
2014,05,13,10,29,18.70
2014,05,13,10,30,18.70
2014,05,13,10,31,18.80
2014,05,13,10,32,18.80
2014,05,13,10,33,18.80
2014,05,13,10,34,18.90
2014,05,13,10,35,18.90
2014,05,13,10,36,18.90
2014,05,13,10,37,18.90
2014,05,13,10,38,18.90
2014,05,13,10,39,18.90
2014,05,13,10,40,18.90
2014,05,13,10,41,18.90
2014,05,13,10,42,19.00
2014,05,13,10,43,19.10
2014,05,13,10,44,19.10
2014,05,13,10,45,19.10
2014,05,13,10,46,19.10
2014,05,13,10,47,19.10
2014,05,13,10,48,19.10
2014,05,13,10,49,19.10
2014,05,13,10,50,19.20
2014,05,13,10,51,19.20
2014,05,13,10,52,19.20
2014,05,13,10,53,19.20
2014,05,13,10,54,19.30
2014,05,13,10,55,19.40
2014,05,13,10,56,19.50
2014,05,13,10,57,19.60
2014,05,13,10,58,19.80
2014,05,13,10,59,20.00
2014,05,13,11,00,20.10
2014,05,13,11,01,20.20
2014,05,13,11,02,20.20
2014,05,13,11,03,20.20
2014,05,13,11,04,20.20
2014,05,13,11,05,20.20
2014,05,13,11,06,20.20
2014,05,13,11,07,20.20
2014,05,13,11,08,20.20
2014,05,13,11,09,20.20
2014,05,13,11,10,20.20
2014,05,13,11,11,20.10
2014,05,13,11,12,20.10
2014,05,13,11,13,20.10
2014,05,13,11,14,20.10
2014,05,13,11,15,20.00
2014,05,13,11,16,19.90
2014,05,13,11,17,19.90
2014,05,13,11,18,19.90
2014,05,13,11,19,19.90
2014,05,13,11,20,19.90
2014,05,13,11,21,19.90
2014,05,13,11,22,20.00
2014,05,13,11,23,20.10
2014,05,13,11,24,20.10
2014,05,13,11,25,20.10
2014,05,13,11,26,20.10
2014,05,13,11,27,20.10
2014,05,13,11,28,20.20
2014,05,13,11,29,20.20
2014,05,13,11,30,20.20
2014,05,13,11,31,20.20
2014,05,13,11,32,20.20
2014,05,13,11,33,20.20
2014,05,13,11,34,20.20
2014,05,13,11,35,20.20
2014,05,13,11,36,20.20
2014,05,13,11,37,20.20
2014,05,13,11,38,20.20
2014,05,13,11,39,20.20
2014,05,13,11,40,20.20
2014,05,13,11,41,20.20
2014,05,13,11,42,20.30
2014,05,13,11,43,20.30
2014,05,13,11,44,20.40
2014,05,13,11,45,20.40
2014,05,13,11,46,20.40
2014,05,13,11,47,20.30
2014,05,13,11,48,20.30
2014,05,13,11,49,20.30
2014,05,13,11,50,20.30
2014,05,13,11,51,20.40
2014,05,13,11,52,20.50
2014,05,13,11,53,20.50
2014,05,13,11,54,20.50
2014,05,13,11,55,20.50
2014,05,13,11,56,20.50
2014,05,13,11,57,20.40
2014,05,13,11,58,20.30
2014,05,13,11,59,20.30
2014,05,13,12,00,20.20
2014,05,13,12,01,20.20
2014,05,13,12,02,20.20
2014,05,13,12,03,20.20
2014,05,13,12,04,20.20
2014,05,13,12,05,20.20
2014,05,13,12,06,20.20
2014,05,13,12,07,20.20
2014,05,13,12,08,20.20
2014,05,13,12,09,20.20
2014,05,13,12,10,20.20
2014,05,13,12,11,20.30
2014,05,13,12,12,20.30
2014,05,13,12,13,20.30
2014,05,13,12,14,20.30
2014,05,13,12,15,20.30
2014,05,13,12,16,20.30
2014,05,13,12,17,20.30
2014,05,13,12,18,20.30
2014,05,13,12,19,20.30
2014,05,13,12,20,20.40
2014,05,13,12,21,20.40
2014,05,13,12,22,20.40
2014,05,13,12,23,20.50
2014,05,13,12,24,20.50
2014,05,13,12,25,20.60
2014,05,13,12,26,20.70
2014,05,13,12,27,20.80
2014,05,13,12,28,20.80
2014,05,13,12,29,20.90
2014,05,13,12,30,21.00
2014,05,13,12,31,21.10
2014,05,13,12,32,21.10
2014,05,13,12,33,21.10
2014,05,13,12,34,21.10
2014,05,13,12,35,21.20
2014,05,13,12,36,21.10
2014,05,13,12,37,21.00
2014,05,13,12,38,20.90
2014,05,13,12,39,20.80
2014,05,13,12,40,20.60
2014,05,13,12,41,20.60
2014,05,13,12,42,20.50
2014,05,13,12,43,20.40
2014,05,13,12,44,20.20
2014,05,13,12,45,20.20
2014,05,13,12,46,20.20
2014,05,13,12,47,20.20
2014,05,13,12,48,20.20
2014,05,13,12,49,20.20
2014,05,13,12,50,20.20
2014,05,13,12,51,20.20
2014,05,13,12,52,20.30
2014,05,13,12,53,20.30
2014,05,13,12,54,20.30
2014,05,13,12,55,20.30
2014,05,13,12,56,20.30
2014,05,13,12,57,20.30
2014,05,13,12,58,20.20
2014,05,13,12,59,20.10
2014,05,13,13,00,20.10
2014,05,13,13,01,20.20
2014,05,13,13,02,20.10
2014,05,13,13,03,20.10
2014,05,13,13,04,20.10
2014,05,13,13,05,20.20
2014,05,13,13,06,20.20
2014,05,13,13,07,20.20
2014,05,13,13,08,20.20
2014,05,13,13,09,20.10
2014,05,13,13,10,19.90
2014,05,13,13,11,19.80
2014,05,13,13,12,19.70
2014,05,13,13,13,19.60
2014,05,13,13,14,19.60
2014,05,13,13,15,19.70
2014,05,13,13,16,19.80
2014,05,13,13,17,19.80
2014,05,13,13,18,19.80
2014,05,13,13,19,19.80
2014,05,13,13,20,19.90
2014,05,13,13,21,19.90
2014,05,13,13,22,20.00
2014,05,13,13,23,20.10
2014,05,13,13,24,20.10
2014,05,13,13,25,20.20
2014,05,13,13,26,20.20
2014,05,13,13,27,20.20
2014,05,13,13,28,20.20
2014,05,13,13,29,20.20
2014,05,13,13,30,20.20
2014,05,13,13,31,20.30
2014,05,13,13,32,20.50
2014,05,13,13,33,20.50
2014,05,13,13,34,20.50
2014,05,13,13,35,20.50
2014,05,13,13,36,20.60
2014,05,13,13,37,20.70
2014,05,13,13,38,20.80
2014,05,13,13,39,21.00
2014,05,13,13,40,21.10
2014,05,13,13,41,21.20
2014,05,13,13,42,21.30
2014,05,13,13,43,21.30
2014,05,13,13,44,21.30
2014,05,13,13,45,21.30
2014,05,13,13,46,21.30
2014,05,13,13,47,21.40
2014,05,13,13,48,21.40
2014,05,13,13,49,21.50
2014,05,13,13,50,21.60
2014,05,13,13,51,21.60
2014,05,13,13,52,21.70
2014,05,13,13,53,21.80
2014,05,13,13,54,21.80
2014,05,13,13,55,21.70
2014,05,13,13,56,21.60
2014,05,13,13,57,21.40
2014,05,13,13,58,21.40
2014,05,13,13,59,21.40
2014,05,13,14,00,21.40
2014,05,13,14,01,21.30
2014,05,13,14,02,21.30
2014,05,13,14,03,21.40
2014,05,13,14,04,21.40
2014,05,13,14,05,21.30
2014,05,13,14,06,21.30
2014,05,13,14,07,21.40
2014,05,13,14,08,21.40
2014,05,13,14,09,21.40
2014,05,13,14,10,21.30
2014,05,13,14,11,21.30
2014,05,13,14,12,21.30
2014,05,13,14,13,21.30
2014,05,13,14,14,21.20
2014,05,13,14,15,21.10
2014,05,13,14,16,21.00
2014,05,13,14,17,20.90
2014,05,13,14,18,20.80
2014,05,13,14,19,20.70
2014,05,13,14,20,20.70
2014,05,13,14,21,20.70
2014,05,13,14,22,20.60
2014,05,13,14,23,20.70
2014,05,13,14,24,20.80
2014,05,13,14,25,20.90
2014,05,13,14,26,21.00
2014,05,13,14,27,21.00
2014,05,13,14,28,21.00
2014,05,13,14,29,21.00
2014,05,13,14,30,21.00
2014,05,13,14,31,21.00
2014,05,13,14,32,20.90
2014,05,13,14,33,20.90
2014,05,13,14,34,20.90
2014,05,13,14,35,20.90
2014,05,13,14,36,20.90
2014,05,13,14,37,20.80
2014,05,13,14,38,20.80
2014,05,13,14,39,20.70
2014,05,13,14,40,20.60
2014,05,13,14,41,20.60
2014,05,13,14,42,20.70
2014,05,13,14,43,20.70
2014,05,13,14,44,20.70
2014,05,13,14,45,20.70
2014,05,13,14,46,20.80
2014,05,13,14,47,20.80
2014,05,13,14,48,20.90
2014,05,13,14,49,20.90
2014,05,13,14,50,21.00
2014,05,13,14,51,21.00
2014,05,13,14,52,21.00
2014,05,13,14,53,20.90
2014,05,13,14,54,20.80
2014,05,13,14,55,20.90
2014,05,13,14,56,21.00
2014,05,13,14,57,21.10
2014,05,13,14,58,21.20
2014,05,13,14,59,21.30
2014,05,13,15,00,21.20
2014,05,13,15,01,21.10
2014,05,13,15,02,21.00
2014,05,13,15,03,21.00
2014,05,13,15,04,20.90
2014,05,13,15,05,20.90
2014,05,13,15,06,20.90
2014,05,13,15,07,20.90
2014,05,13,15,08,20.90
2014,05,13,15,09,20.90
2014,05,13,15,10,20.80
2014,05,13,15,11,20.80
2014,05,13,15,12,20.70
2014,05,13,15,13,20.60
2014,05,13,15,14,20.50
2014,05,13,15,15,20.40
2014,05,13,15,16,20.30
2014,05,13,15,17,20.30
2014,05,13,15,18,20.30
2014,05,13,15,19,20.40
2014,05,13,15,20,20.50
2014,05,13,15,21,20.40
2014,05,13,15,22,20.50
2014,05,13,15,23,20.50
2014,05,13,15,24,20.60
2014,05,13,15,25,20.70
2014,05,13,15,26,20.70
2014,05,13,15,27,20.70
2014,05,13,15,28,20.70
2014,05,13,15,29,20.70
2014,05,13,15,30,20.70
2014,05,13,15,31,20.70
2014,05,13,15,32,20.80
2014,05,13,15,33,20.80
2014,05,13,15,34,20.80
2014,05,13,15,35,20.90
2014,05,13,15,36,20.90
2014,05,13,15,37,21.00
2014,05,13,15,38,21.00
2014,05,13,15,39,21.10
2014,05,13,15,40,21.10
2014,05,13,15,41,21.10
2014,05,13,15,42,21.10
2014,05,13,15,43,21.00
2014,05,13,15,44,21.00
2014,05,13,15,45,21.10
2014,05,13,15,46,21.10
2014,05,13,15,47,21.10
2014,05,13,15,48,21.10
2014,05,13,15,49,21.00
2014,05,13,15,50,21.00
2014,05,13,15,51,20.90
2014,05,13,15,52,20.80
2014,05,13,15,53,20.70
2014,05,13,15,54,20.50
2014,05,13,15,55,20.40
2014,05,13,15,56,20.40
2014,05,13,15,57,20.50
2014,05,13,15,58,20.50
2014,05,13,15,59,20.60
2014,05,13,16,00,20.60
2014,05,13,16,01,20.60
2014,05,13,16,02,20.60
2014,05,13,16,03,20.70
2014,05,13,16,04,20.70
2014,05,13,16,05,20.70
2014,05,13,16,06,20.70
2014,05,13,16,07,20.70
2014,05,13,16,08,20.70
2014,05,13,16,09,20.60
2014,05,13,16,10,20.60
2014,05,13,16,11,20.50
2014,05,13,16,12,20.50
2014,05,13,16,13,20.50
2014,05,13,16,14,20.60
2014,05,13,16,15,20.70
2014,05,13,16,16,20.80
2014,05,13,16,17,20.90
2014,05,13,16,18,21.10
2014,05,13,16,19,21.20
2014,05,13,16,20,21.30
2014,05,13,16,21,21.40
2014,05,13,16,22,21.50
2014,05,13,16,23,21.60
2014,05,13,16,24,21.60
2014,05,13,16,25,21.60
2014,05,13,16,26,21.60
2014,05,13,16,27,21.60
2014,05,13,16,28,21.60
2014,05,13,16,29,21.60
2014,05,13,16,30,21.60
2014,05,13,16,31,21.60
2014,05,13,16,32,21.60
2014,05,13,16,33,21.60
2014,05,13,16,34,21.60
2014,05,13,16,35,21.60
2014,05,13,16,36,21.60
2014,05,13,16,37,21.60
2014,05,13,16,38,21.60
2014,05,13,16,39,21.60
2014,05,13,16,40,21.60
2014,05,13,16,41,21.40
2014,05,13,16,42,21.30
2014,05,13,16,43,21.30
2014,05,13,16,44,21.30
2014,05,13,16,45,21.30
2014,05,13,16,46,21.40
2014,05,13,16,47,21.60
2014,05,13,16,48,21.60
2014,05,13,16,49,21.70
2014,05,13,16,50,21.70
2014,05,13,16,51,21.80
2014,05,13,16,52,21.90
2014,05,13,16,53,22.00
2014,05,13,16,54,22.00
2014,05,13,16,55,22.00
2014,05,13,16,56,22.00
2014,05,13,16,57,22.00
2014,05,13,16,58,22.10
2014,05,13,16,59,22.10
2014,05,13,17,00,22.10
2014,05,13,17,01,22.10
2014,05,13,17,02,22.10
2014,05,13,17,03,22.10
2014,05,13,17,04,22.10
2014,05,13,17,05,22.10
2014,05,13,17,06,22.10
2014,05,13,17,07,22.10
2014,05,13,17,08,22.00
2014,05,13,17,09,22.00
2014,05,13,17,10,22.00
2014,05,13,17,11,22.00
2014,05,13,17,12,22.00
2014,05,13,17,13,21.90
2014,05,13,17,14,21.90
2014,05,13,17,15,21.90
2014,05,13,17,16,21.80
2014,05,13,17,17,21.80
2014,05,13,17,18,21.80
2014,05,13,17,19,21.80